Location: Newark
(43.9494°N, 6.8108°E)
Time: 17:44:17
(UTC+00:00)

A-11 Canister half - Pass Details

Date: 27 October 2019
Orbit: 1514 x 1686 km, 47.2° (Epoch: 12 November)

Event Time Altitude Azimuth Distance (km) Brightness Sun altitude
Rises 03:12:13 0° 280° (W) 4,890 - -31.0°
Reaches altitude 10° 03:15:25 10° 282° (WNW) 3,883 - -30.4°
Exits shadow 03:22:07 48° 295° (WNW) 2,019 9.2 -29.3°
Maximum altitude 03:25:21 76° 8° (N) 1,642 9.0 -28.7°
Drops below altitude 10° 03:34:54 10° 95° (E) 3,743 12.0 -27.0°
Sets 03:37:55 0° 97° (E) 4,706 12.8 -26.5°
